Regional Weather Roundup
Issued by NWS Midland/Odessa, TX

Skip options and go directly to product.
Home | Oldest Version | Next Version | Current Version | All | Text Only | Save Text | Print | Product List | Glossary On

Skip product version selection by date and time.   
023
ASUS44 KMAF 261210
RWRMAF
MIDLAND AREA WEATHER ROUNDUP
NATIONAL WEATHER SERVICE MIDLAND TX
700 AM CDT MON SEP 26 2016

...IN SOUTHWEST TEXAS AND SOUTHEAST NEW MEXICO...

CITY           SKY/WX    TMP DP  RH WIND       PRES   REMARKS
ALPINE         CLOUDY    55  54  98 NE8       30.34R
ANDREWS        NOT AVBL
ARTESIA        CLOUDY    57  46  67 N9        30.35S
BIG SPRING     CLOUDY    61  50  67 NE10      30.28R
CARLSBAD       CLOUDY    58  49  72 N8        30.32R
DRYDEN           N/A     63  61  93 N13       30.14R
FORT STOCKTON  LGT RAIN  56  56 100 N12       30.25R FOG
GUAD PASS      LGT RAIN  47  47 100 NE39G48   30.31R WCI  37
HOBBS          CLOUDY    59  45  58 N13       30.33R
MARFA          CLOUDY   N/A N/A N/A N17       30.28R
MIDLAND AIRPK  CLOUDY    62  49  60 NE14      30.28R
MIDLAND INTL   CLOUDY    63  46  54 NE18      30.26R
ODESSA         CLOUDY    64  45  49 NE17G25   30.26S
PECOS          LGT RAIN  59  54  84 CALM      30.27R
PRESIDIO       CLOUDY    66  57  72 N12G18    30.16R
SEMINOLE       CLOUDY    58  48  70 NE8       30.32R
SNYDER           N/A     60  51  73 NE7       30.26S
WINK           CLOUDY    61  49  64 NE13      30.25R
$$
...OTHER STATIONS IN TEXAS...

CITY           SKY/WX    TMP DP  RH WIND       PRES   REMARKS
ABILENE        CLOUDY    61  55  81 N9        30.23R
AMARILLO       CLEAR     46  40  79 NW6       30.38R
AUSTIN         LGT RAIN  72  71  97 N7        30.06R FOG
BROWNSVILLE    CLOUDY    77  74  90 N7        29.95R
CORPUS CHRISTI CLOUDY    76  73  91 E12       29.98R
DALLAS FTW     CLOUDY    68  58  70 N17G24    30.12R
DEL RIO        LGT RAIN  69  68  96 N8        30.06R
EL PASO        CLOUDY    64  37  36 NE13      30.26R
HOUSTON INT    CLOUDY    73  72  96 N5        30.02R
LUBBOCK        CLOUDY    57  47  69 NE10      30.32R
SAN ANGELO     CLOUDY    62  58  86 N13       30.20R
SAN ANTONIO    HVY RAIN  69  67  93 N8        30.06S FOG
WACO           LGT RAIN  69  67  93 N13       30.09R
WICHITA FALLS  NOT AVBL
$$
...OTHER LOCATIONS IN NEW MEXICO...

CITY           SKY/WX    TMP DP  RH WIND       PRES   REMARKS
ALAMAGORDO     MOCLDY    64  36  34 E13G18    30.27S
ALBUQUERQUE    CLEAR     53  34  48 E14       30.44S
CANNON AFB     CLOUDY    49  42  78 N9        30.39R
CLOVIS         CLOUDY    46  39  76 N9        30.39R
HOLLOMAN AFB   CLOUDY    64  36  35 NE15      30.25S
ROSWELL        MOCLDY    54  42  64 N7        30.36R
RUIDOSO        CLOUDY    46  37  71 SE6       30.48S
SANTA FE       CLEAR     41  32  70 CALM      30.49R
TRUTH OR CONSE CLOUDY    59  38  45 N16       30.34R
TUCUMCARI      CLEAR     46  34  62 CALM      30.40R
$$

USA.gov is the U.S. government's official web portal to all federal, state and local government web resources and services.